EHI
0 0 0 0 0 0 0 0 0 0 0 0 0 0 0 0 0 0 0 0 0 0 0 0 0 0 0 0 0 0 0 0 0 0 0 0 0 0 0 0 0 0 0 0
0 0 0 0 0 0 0 0 0 0 0 0 0 0 0 0 0 0 0 0 0 0 0 0 0 0 0 0 0 0 0 0 0 0 0 0 0 0 0 0 0 0 0 0
0 0 0 0 0 0 0 0 0 0 0 0 0 0 0 0 0 0 0 0 0 0 0 0 0 0 0 0 0 0 0 0 0 0 0 0 0 0 0 0 0 0 0 0
0 0 0 0 0 0 0 0 0 0 0 0 0 0 0 0 0 0 0 0 0 0 0 0 0 0 0 0 0 0 0 0 0 0 0 0 0 0 0 0 0 0 0 0
0 0 0 0 0 0 0 0 0 0 0 0 0 0 0 0 0 0 0 0 0 0 0 0 0 0 0 0 0 0 0 0 0 0 0 0 0 0 0 0 0 0 0 0
0 0 0 0 0 0 0 0 0 0 0 0 0 0 0 0 0 0 0 0 0 0 0 0 0 0 0 0 0 0 0 0 0 0 0 0 0 0 0 0 0 0 0 0
0 0 0 0 0 0 0 0 0 0 0 0 0 0 0 0 0 0 0 0 0 0 0 0 0 0 0 0 0 0 0 0 0 0 0 0 0 0 0 0 0 0 0 0
0 0 0 0 0 0 0 0 0 0 0 0 0 0 0 0 0 0 0 0 0 0 0 0 0 0 0 0 0 0 0 0 0 0 0 0 0 0 0 0 0 0 0 0
0 0 0 0 0 0 0 0 0 0 0 0 0 0 0 0 0 0 0 0 0 0 0 0 0 0 0 0 0 0 0 0 0 0 0 0 0 0 0 0 0 0 0 0
0 0 0 0 0 0 0 0 0 0 0 0 0 0 0 0 0 0 0 0 0 0 0 0 0 0 0 0 0 0 0 0 0 0 0 0 0 0 0 0 0 0 0 0
0 0 0 0 0 0 0 0 0 0 0 0 0 0 0 0 0 0 0 0 0 0 0 0 0 0 0 0 0 0 0 0 0 0 0 0 0 0 0 0 0 0 0 0
0 0 0 0 0 0 0 0 0 0 0 0 0 0 0 0 0 0 0 0 0 0 0 0 0 0 0 0 0 0 0 0 0 0 0 0 0 0 0 0 0 0 0 0
0 0 0 0 0 0 0 0 0 0 0 0 0 0 0 0 0 0 0 0 0 0 0 0 0 0 0 0 0 0 0 0 0 0 0 0 0 0 0 0 0 0 0 0
0 0 0 0 0 0 0 0 0 0 0 0 0 0 0 0 0 0 0 0 0 0 0 0 0 0 0 0 0 0 0 0 0 0 0 0 0 0 0 0 0 0 0 0
0 0 0 0 0 0 0 0 0 0 0 0 0 0 0 0 0 0 0 0 0 0 0 0 0 0 0 0 0 0 0 0 0 0 0 0 0 0 0 0 0 0 0 0
0 0 0 0 0 0 0 0 0 0 0 0 0 0 0 0 0 0 0 0 0 0 0 0 0 0 0 0 0 0 0 0 0 0 0 0 0 0 0 0 0 0 0 0
0 0 0 0 0 0 0 0 0 0 0 0 0 0 0 0 0 0 0 0 0 0 0 0 0 0 0 0 0 0 0 0 0 0 0 0 0 0 0 0 0 0 0 0
0 0 0 0 0 0 0 0 0 0 0 0 0 0 0 0 0 0 0 0 0 0 0 0 0 0 0 0 0 0 0 0 0 0 0 0 0 0 0 0 0 0 0 0
0 0 0 0 0 0 0 0 0 0 0 0 0 0 0 0 0 0 0 0 0 0 0 0 0 0 0 0 0 0 0 0 0 0 0 0 0 0 0 0 0 0 0 0
0 0 0 0 0 0 0 0 0 0 0 0 0 0 0 0 0 0 0 0 0 0 0 0 0 0 0 0 0 0 0 0 0 0 0 0 0 0 0 0 0 0 0 0
0 0 0 0 0 0 0 0 0 0 0 0 0 0 0 0 0 0 0 0 0 0 0 0 0 0 0 0 0 0 0 0 0 0 0 0 0 0 0 0 0 0 0 0
0 0 0 0 0 0 0 0 0 0 0 0 0 0 0 0 0 0 0 0 0 0 0 0 0 0 0 0 0 0 0 0 0 0 0 0 0 0 0 0 0 0 0 0
0 0 0 0 0 0 0 0 0 0 0 0 0 0 0 0 0 0 0 0 0 0 0 0 0 0 0 0 0 0 0 0 0 0 0 0 0 0 0 0 0 0 0 0
0 0 0 0 0 0 0 0 0 0 0 0 0 0 0 0 0 0 0 0 0 0 0 0 0 0 0 0 0 0 0 0 0 0 0 0 0 0 0 0 0 0 0 0
0 0 0 0 0 0 0 0 0 0 0 0 0 0 0 0 0 0 0 0 0 0 0 0 0 0 0 0 0 0 0 0 0 0 0 0 0 0 0 0 0 0 0 0
0 0 0 0 0 0 0 0 0 0 0 0 0 0 0 0 0 0 0 0 0 0 0 0 0 0 0 0 0 0 0 0 0 0 0 0 0 0 0 0 0 0 0 0
0 0 0 0 0 0 0 0 0 0 0 0 0 0 0 0 0 0 0 0 0 0 0 0 0 0 0 0 0 0 0 0 0 0 0 0 0 0 0 0 0 0 0 0
Wind_Speed
7 6 7 9 13 14 16 15 14 15 15 11 8 7 6 4 4 4 4 5 7 6 6 5 5 5 6 6 6 7 8 8 8 7 7 7 7 7 7 7 8 7 7 6
7 6 7 9 14 19 19 18 16 12 16 11 8 5 4 5 6 6 7 7 7 7 7 7 7 7 7 6 6 7 8 8 7 7 7 7 7 7 7 7 6 6 7 7
5 5 4 13 17 19 17 18 19 22 20 5 8 11 11 10 9 10 10 9 9 9 9 9 8 8 8 7 7 7 7 7 7 7 7 7 7 7 7 7 6 6 6 6
3 2 10 9 7 12 16 18 16 15 9 10 11 11 10 10 11 11 9 9 9 8 7 6 6 6 7 7 8 8 7 7 7 8 7 7 7 7 6 5 6 6 5 5
4 5 8 9 5 11 14 18 16 16 12 8 4 3 8 9 10 11 11 10 9 8 7 6 7 8 9 8 8 8 8 8 8 8 8 8 7 7 5 5 5 4 4 5
5 6 10 8 4 4 7 14 11 13 14 9 7 8 14 9 10 10 8 6 6 6 5 7 7 9 10 9 9 9 8 8 7 8 8 8 7 6 5 5 5 4 4 4
7 7 10 8 3 6 10 11 6 10 12 11 15 17 10 6 9 9 7 6 6 7 7 7 9 10 10 9 9 8 7 7 7 7 7 7 6 5 5 5 5 4 4 2
8 9 12 4 4 8 6 5 4 7 9 10 13 12 6 7 8 8 6 6 7 7 6 6 9 11 10 9 7 7 8 8 7 6 6 6 7 6 5 6 6 4 3 2
9 10 6 3 5 6 3 4 4 4 6 7 8 8 7 7 7 7 7 7 6 8 8 6 7 9 11 8 9 9 9 8 7 7 6 6 7 7 5 5 4 3 3 2
7 9 9 9 8 7 5 6 7 6 5 5 6 6 6 6 6 6 7 7 7 9 9 7 6 7 8 9 10 10 10 8 7 7 6 5 5 5 5 5 4 4 3 3
10 9 9 10 9 8 8 7 7 6 5 5 5 5 5 5 6 7 6 6 8 9 10 9 8 7 8 9 11 11 9 8 7 6 6 5 4 3 4 3 4 5 4 4
10 7 7 11 10 9 9 9 8 7 7 5 4 5 4 5 5 6 7 7 8 8 9 9 9 9 8 8 10 12 9 7 6 6 5 5 5 4 5 4 5 4 4 3
12 11 11 13 12 10 10 10 8 6 6 5 3 3 4 4 4 6 7 8 9 9 9 9 9 9 8 8 9 10 10 8 6 6 6 5 5 5 4 4 5 5 4 3
11 10 12 12 11 10 9 7 5 4 3 2 1 2 5 5 6 7 8 8 8 9 9 9 10 8 7 8 9 9 9 9 8 6 5 5 5 4 4 4 2 1 1 2
12 11 12 11 10 8 5 3 2 3 2 1 1 4 6 8 7 6 7 8 10 10 9 9 10 8 6 8 10 10 8 6 6 6 5 5 5 4 3 3 2 1 0 1
9 8 9 9 10 7 5 4 4 5 3 2 3 4 5 7 8 7 7 9 11 10 9 9 9 7 7 9 10 8 6 10 8 6 5 5 4 4 3 3 2 2 1 1
8 9 8 8 9 7 7 6 6 6 4 4 5 6 9 10 9 8 6 6 7 8 8 9 9 7 8 9 9 7 6 7 10 6 5 4 4 3 3 3 2 2 1 2
11 12 10 9 8 7 6 4 4 4 5 5 7 8 9 11 10 9 8 9 10 9 7 7 8 8 8 8 7 7 6 5 5 5 4 4 3 3 3 3 2 2 1 1
10 10 9 8 7 6 4 3 3 4 5 7 9 9 8 8 10 10 9 10 11 10 6 7 12 9 8 8 9 6 6 6 5 4 4 4 3 2 2 2 2 2 2 2
8 7 6 5 4 3 3 3 4 4 5 8 9 10 9 9 9 10 9 7 4 5 8 9 9 8 7 8 9 6 6 6 5 4 3 3 3 2 2 2 2 2 2 2
5 4 4 3 2 2 3 5 6 6 6 8 10 11 11 9 9 9 10 8 5 7 8 11 7 6 6 7 8 5 5 5 4 4 3 3 2 2 2 2 2 2 2 2
2 2 3 4 5 5 4 5 6 8 9 9 10 11 12 11 9 8 7 6 7 10 7 6 5 7 8 9 5 5 5 4 3 3 3 2 2 2 2 2 2 2 3 3
2 3 5 6 7 7 7 7 8 8 9 10 10 11 10 8 6 8 8 5 6 10 7 5 8 11 11 7 5 5 4 4 3 2 2 2 2 2 2 3 3 3 3 3
5 7 7 7 9 10 10 8 8 9 10 10 9 8 9 9 7 6 7 11 12 11 7 9 12 11 9 5 4 4 3 3 2 2 2 2 2 2 2 3 3 3 4 4
7 8 8 9 9 8 9 10 11 11 12 10 11 10 7 6 7 8 8 9 12 11 7 9 11 10 6 4 4 3 2 2 2 2 2 2 2 2 2 3 3 4 4 4
7 7 7 7 7 6 6 7 8 8 8 10 9 8 8 8 9 8 7 8 10 10 7 5 5 6 4 3 3 3 2 1 1 0 1 1 2 2 3 3 5 4 4 5
8 7 7 8 7 6 6 7 8 8 7 9 9 8 8 8 8 8 8 7 7 6 5 4 4 3 3 3 2 2 1 1 0 1 1 1 2 3 3 4 4 4 4 5
Wind_Direction
267 260 208 223 216 211 213 212 212 224 226 227 231 228 228 217 198 195 210 208 204 204 203 197 191 186 182 180 173 167 170 178 184 177 174 173 173 172 171 173 176 176 176 177
269 254 239 241 224 216 221 219 225 231 239 226 225 222 226 216 203 211 217 218 214 207 202 200 196 189 181 179 174 166 172 178 171 165 166 168 168 165 163 166 167 165 173 175
265 286 271 239 218 211 217 219 216 226 233 192 207 215 218 215 210 217 221 215 210 207 205 203 195 184 182 175 163 165 171 168 165 165 166 167 161 159 165 167 162 164 171 172
248 244 229 238 210 210 223 229 221 230 229 199 213 222 221 206 204 217 220 216 215 208 204 197 180 170 160 154 159 164 166 166 164 162 162 158 156 162 164 160 163 167 171 174
206 235 264 277 231 198 209 234 223 229 234 220 211 239 247 221 208 214 215 212 211 200 191 176 170 161 149 151 155 161 169 170 167 162 158 156 161 164 160 155 158 163 163 167
203 219 235 245 235 211 193 247 230 221 229 213 164 222 244 215 207 218 216 205 195 176 161 165 165 151 149 155 160 172 175 168 160 157 157 160 162 156 149 150 152 146 146 162
211 230 255 259 248 145 186 240 237 212 222 208 204 225 241 197 203 206 204 199 177 163 165 170 157 149 151 156 173 172 153 144 145 149 151 150 143 140 139 134 131 134 138 142
201 222 243 240 158 184 228 273 253 217 217 217 228 238 231 204 200 192 189 181 164 157 159 153 153 150 152 165 160 140 136 136 139 140 138 134 133 131 133 135 135 138 135 129
209 227 259 226 225 248 264 271 270 250 250 229 233 235 226 213 198 188 179 170 159 152 145 145 155 156 156 157 142 135 132 134 133 127 126 133 137 137 135 137 140 146 147 157
251 256 270 274 275 284 287 278 279 269 257 230 233 233 225 209 194 182 172 164 153 145 144 151 154 151 147 141 138 134 134 134 133 130 126 122 126 136 142 150 149 151 159 167
252 266 277 270 263 271 286 294 297 291 270 238 225 236 214 201 190 177 165 155 151 152 152 152 144 138 137 139 136 132 131 132 131 129 132 125 117 125 140 157 165 165 175 171
245 243 249 269 273 275 275 276 276 281 288 277 228 218 200 188 178 162 154 145 142 141 141 141 138 136 138 140 138 135 133 134 134 132 129 128 122 97 82 106 121 128 143 153
250 261 260 269 273 268 265 268 270 262 259 270 263 197 167 154 150 145 143 146 147 145 140 136 134 135 138 139 137 136 137 138 134 134 134 135 135 132 120 82 86 97 110 119
251 257 265 265 267 270 269 272 275 277 275 263 234 155 137 130 133 143 147 144 135 129 129 130 128 129 134 133 129 127 128 133 134 136 136 137 137 136 137 138 127 77 76 98
252 248 254 267 271 272 269 259 262 271 277 303 145 143 143 141 144 143 131 126 122 121 125 126 124 124 127 127 125 126 127 130 129 128 128 129 129 128 130 134 139 140 77 41
266 263 255 257 257 256 251 240 232 239 229 196 158 141 134 127 122 121 126 134 135 136 136 130 127 129 127 124 120 118 121 130 128 128 127 127 131 135 138 142 149 161 184 209
257 257 255 258 255 250 245 237 223 216 201 181 163 137 125 121 117 118 116 110 114 118 125 127 127 126 122 123 121 122 122 127 126 122 126 133 139 145 150 155 167 184 213 233
247 248 246 245 245 246 249 241 221 199 187 169 147 138 139 141 140 137 129 118 108 97 96 113 120 118 115 116 117 120 122 124 125 128 129 134 139 147 151 158 172 188 225 256
249 249 250 246 241 236 232 219 202 179 162 152 149 146 141 135 133 133 130 126 125 120 119 123 124 116 116 120 119 118 121 121 120 122 128 138 132 138 149 163 182 200 213 234
249 245 241 240 230 215 195 168 157 155 154 145 137 129 124 125 128 126 118 103 98 122 130 125 119 116 117 123 119 118 123 126 129 131 132 139 147 155 164 179 195 210 223 233
246 231 209 190 170 137 143 149 147 142 137 135 136 134 129 126 125 124 120 109 99 116 122 122 116 119 119 123 116 116 120 126 132 140 147 152 157 166 180 193 209 223 230 240
250 187 155 133 118 102 94 107 118 122 119 115 115 119 121 121 115 100 89 114 129 126 117 116 118 125 126 118 110 114 118 125 132 140 150 158 167 182 200 211 222 236 240 242
58 100 106 108 108 100 89 89 99 109 112 115 119 122 120 118 119 121 115 117 123 120 113 115 125 125 117 105 110 115 121 128 137 148 158 167 181 195 212 226 236 241 245 251
69 82 89 93 96 96 92 87 88 92 95 94 93 99 110 110 91 76 102 117 114 109 104 117 117 113 104 101 108 113 119 126 136 148 161 176 192 209 225 237 247 251 254 257
71 80 88 92 92 93 98 99 96 93 92 89 82 75 72 82 101 106 103 106 109 102 100 104 103 98 92 98 104 109 115 135 155 166 177 190 213 228 239 246 251 256 259 260
71 75 75 77 86 96 100 101 101 100 101 97 88 81 82 85 91 94 95 95 95 95 90 87 90 89 88 94 99 106 113 115 76 95 183 226 244 253 258 260 261 260 261 262
72 75 79 79 75 76 84 92 96 96 97 102 100 92 89 89 90 90 90 89 88 86 85 84 84 85 88 90 92 95 100 106 162 225 240 250 257 260 262 262 264 265 265 265